sat.trackr.live / text

‹ back to catalog

STARLINK-1704

NORAD 47625 · 2021-012F

PAYLOAD ACTIVE UNKNOWN

§ Identity

Operator
Country
US
Launch date
2021-02-16
Launch site
AFETR
Launch vehicle
Mass (kg)
RCS (m²)

Purposes: comms

External: N2YO · Heavens-Above · Gunter

§ Orbital elements

Epoch: 2026-05-25T04:20:10.784832Z

Period
92.61 min
Inclination
53.0474°
Eccentricity
0.0007285
Mean motion
15.54927305 rev/d
Perigee alt
397.4 km
Apogee alt
407.3 km
Semi-major
6,780.5 km
B*
7.9641e-4
RAAN
56.0306°
Arg perigee
90.9549°
Mean anomaly
269.2296°
Rev number
29,196

§ Raw data

STARLINK-17041 47625U 21012F   26145.18068038  .00054153  00000+0  79641-3 0  99992 47625  53.0474  56.0306 0007285  90.9549 269.2296 15.54927305291961

JSON: /api/v1/satellites/47625 · /tle

For live sub-satellite position, see the globe view (requires WebGL).

§ Visibility from observer

Set your observer location to see the next 7 days of passes ≥ 10°. The values pass through the URL so the page stays shareable.

No JS? Fill the form by hand. The geolocation button needs JavaScript.